Flight Track Log - Related Links

Times and Time Zones

All times are in EDT time to prevent confusion due to time zone crossing. See the ASQ4233 flight status page for this flight to view local times or setup timezone preferences in your user account.

Time Position Orientation Groundspeed Altitude Reporting Facility
EDT Latitude Longitude Course Direction KTS MPH feet Rate Location/Type
Sun 10:57:36 PM 29.9639 -95.3458 247° West 149 171 500  Level Houston Center
Sun 10:58:12 PM 29.9367 -95.3467 182° South 183 211 1,800 1,820 Climbing Houston Center
Sun 10:59:05 PM 29.9111 -95.3886 235° Southwest 212 244 3,200 2,071 Climbing Houston Center
Sun 11:00:00 PM 29.8831 -95.6340 249° West  Level FlightAware Approximate
Sun 11:00:05 PM 29.9039 -95.4750 265° West 269 310 5,700  Level Houston Center
Sun 11:00:20 PM 29.8989 -95.5053 259° West 285 328 6,700 3,049 Climbing Houston Center
Sun 11:01:00 PM 29.8497 -95.7344 249° West  Level FlightAware Approximate
Sun 11:01:06 PM 29.8897 -95.5644 260° West 282 325 8,800  Level Houston Center
Sun 11:02:00 PM 29.8150 -95.8340 247° West  Level FlightAware Approximate
Sun 11:02:07 PM 29.8742 -95.6531 259° West 284 327 11,400  Level Houston Center
Sun 11:03:00 PM 29.7826 -95.9230 247° West  Level FlightAware Approximate
Sun 11:03:08 PM 29.8564 -95.7494 258° West 304 350 13,500  Level Houston Center
Sun 11:04:08 PM 29.8378 -95.8511 258° West 322 371 15,500 1,983 Climbing Houston Center
Sun 11:05:09 PM 29.8192 -95.9567 259° West 336 387 17,500 1,967 Climbing Houston Center
Sun 11:06:10 PM 29.8253 -96.0672 274° West 333 383 19,500 2,016 Climbing Houston Center
Sun 11:07:11 PM 29.8297 -96.1731 273° West 333 383 21,600 2,033 Climbing Houston Center
Sun 11:08:11 PM 29.8339 -96.2772 273° West 328 377 23,600 1,983 Climbing Houston Center
Sun 11:09:12 PM 29.8392 -96.3803 273° West 326 375 25,600 2,016 Climbing Houston Center
Sun 11:10:13 PM 29.8444 -96.5017 273° West 319 367 27,700 1,721 Climbing Houston Center
Sun 11:11:14 PM 29.8489 -96.6011 273° West 315 362 29,100 1,140 Climbing Houston Center
Sun 11:12:14 PM 29.8536 -96.7008 273° West 315 362 30,000 446 Climbing Houston Center
Sun 11:13:15 PM 29.8575 -96.8108 272° West 345 397 30,000 -984 Level Houston Center
Sun 11:14:16 PM 29.8631 -96.9286 273° West 367 422 28,000 -2,132 Descending Houston Center
Sun 11:15:16 PM 29.8681 -97.0486 273° West 379 436 25,700 -2,182 Descending Houston Center
Sun 11:16:17 PM 29.8728 -97.1744 273° West 393 452 23,600 -2,016 Descending Houston Center
Sun 11:17:18 PM 29.8778 -97.3003 273° West 395 455 21,600 -2,033 Descending Houston Center
Sun 11:18:18 PM 29.8828 -97.4267 273° West 396 456 19,500 -2,150 Descending Houston Center
Sun 11:19:18 PM 29.8861 -97.5594 272° West 384 442 17,300 -2,200 Descending Houston Center
Sun 11:19:48 PM 29.8883 -97.6242 272° West 379 436 16,200 -2,129 Descending Houston Center
Sun 11:20:20 PM 29.8914 -97.6883 273° West 378 435 15,100 -1,967 Descending Houston Center
Sun 11:20:49 PM 29.8936 -97.7442 273° West 376 433 14,200 -1,900 Descending Houston Center
Sun 11:21:20 PM 29.8967 -97.8081 273° West 376 433 13,200 -1,727 Descending Houston Center
Sun 11:21:55 PM 29.8894 -97.8750 263° West 349 402 12,300 -1,377 Descending Houston Center
Sun 11:22:21 PM 29.8758 -97.9108 246° West 328 377 11,800 -1,377 Descending Houston Center
Sun 11:22:56 PM 29.8542 -97.9661 246° West 305 351 10,900 -1,500 Descending Houston Center
Sun 11:23:21 PM 29.8383 -98.0000 242° Southwest 310 357 10,300 -1,574 Descending Houston Center
Sun 11:23:57 PM 29.8181 -98.0503 245° Southwest 287 330 9,300 -1,672 Descending Houston Center
Sun 11:24:22 PM 29.8039 -98.0822 243° Southwest 287 330 8,600 -1,700 Descending Houston Center
Sun 11:24:57 PM 29.7819 -98.1342 244° Southwest 286 329 7,600 -1,770 Descending Houston Center
Sun 11:25:23 PM 29.7667 -98.1722 245° Southwest 289 333 6,800 -1,475 Descending Houston Center
Sun 11:25:58 PM 29.7497 -98.2175 247° West 288 331 6,100 -800 Descending Houston Center
Sun 11:26:23 PM 29.7344 -98.2533 244° Southwest 281 323 6,000 -98 Descending Houston Center
Sun 11:26:59 PM 29.7172 -98.2961 245° Southwest 272 313 6,000 -492 Level Houston Center
Sun 11:27:24 PM 29.7033 -98.3314 246° West 270 311 5,500 -1,364 Descending Houston Center
Sun 11:28:05 PM 29.6833 -98.3844 247° West 263 303 4,500 -1,400 Descending Houston Center
Sun 11:28:24 PM 29.6736 -98.4078 244° Southwest 264 304 4,100 -885 Descending Houston Center
Sun 11:29:06 PM 29.6586 -98.4572 251° West 238 274 3,600 -689 Descending Houston Center
Sun 11:29:25 PM 29.6506 -98.4781 246° West 242 278 3,400 -800 Descending Houston Center
Sun 11:30:06 PM 29.6333 -98.5250 247° West 228 262 2,800 -878 Descending Houston Center

Login

Don't have an account? Register now (free) for customized features, flight alerts, and more!